Home > Weather > Trondheim > Past weeks

Flag for Norway Past Weather in Trondheim, Norway — Yesterday and Last 2 Weeks

Now
64 °F

Sunny.


Feels Like: 64 °F
Forecast: 57 / 68 °F
Wind: 8 mph from West

Location: Trondheim / Vaernes

Current Time: Jun 29, 2016 at 1:05:43 PM

Latest Report: Jun 29, 2016 at 11:50 AM


Visibility: 10 mi

Pressure: 29.83 "Hg

Humidity: 56%

Dew Point: 48 °F

Location of TrondheimLocation

Past Weather in Trondheim — Graph

°F

Trondheim Temperature Yesterday

Maximum temperature yesterday: 63 °F (at 6:50 PM)
Minimum temperature yesterday: 50 °F (at 1:50 AM)
Average temperature yesterday: 56 °F

High & Low Weather Summary for the Past Weeks

 TemperatureHumidityPressure
High75 °F (Jun 26, 8:50 PM)100% (Jun 20, 4:50 AM)30.09 "Hg (Jun 20, 4:50 AM)
Low43 °F (Jun 20, 4:50 AM)33% (Jun 20, 2:50 PM)29.56 "Hg (Jun 27, 9:50 AM)
Average57 °F77%29.85 "Hg
* Reported Jun 14 11:20 AM — Jun 29 11:50 AM, Trondheim, Weather by CustomWeather, © 2016

Note: Actual official high and low records may vary slightly from our data, if they occured in-between our weather recording intervals... More about our weather records

Advertising

Trondheim Weather History for the Previous 24 Hours

Scroll right to see more
 ConditionsComfort  
Time TempWeatherWind HumidityBarometerVisibility
11:50 AM
Wed, Jun 29
64 °FSunny.8 mph56%29.83 "Hg10 mi
11:20 AM63 °FSunny.7 mph56%29.83 "Hg10 mi
10:50 AM63 °FSunny.7 mph59%29.86 "Hg10 mi
10:20 AM61 °FSunny.8 mph63%29.86 "Hg10 mi
9:50 AM63 °FPassing clouds.8 mph52%29.86 "HgN/A
9:20 AM61 °FSunny.3 mph52%29.86 "Hg10 mi
8:50 AM57 °FSunny.2 mph72%29.89 "Hg10 mi
8:20 AM55 °FPassing clouds.5 mph72%29.89 "HgN/A
7:50 AM54 °FPassing clouds.3 mph77%29.89 "HgN/A
7:20 AM52 °FSunny.7 mph77%29.89 "Hg10 mi
6:50 AM50 °FSunny.7 mph82%29.92 "Hg10 mi
6:20 AM50 °FSunny.5 mph82%29.92 "Hg10 mi
5:50 AM48 °FSunny.6 mph87%29.92 "Hg10 mi
5:20 AM46 °FSunny.7 mph87%29.92 "Hg10 mi
4:50 AM46 °FSunny.9 mph93%29.92 "Hg10 mi
3:50 AM46 °FClear.10 mph93%29.92 "Hg10 mi
2:50 AM46 °FClear.9 mph93%29.92 "Hg10 mi
1:50 AM48 °FClear.6 mph94%29.92 "Hg10 mi
1:20 AM50 °FClear.8 mph88%29.92 "Hg10 mi
12:50 AM52 °FPassing clouds.6 mph88%29.92 "HgN/A
12:20 AM52 °FPassing clouds.3 mph88%29.89 "HgN/A
11:50 PM
Tue, Jun 28
54 °FPassing clouds.2 mph82%29.89 "HgN/A
11:20 PM55 °FSunny.5 mph77%29.89 "Hg10 mi
10:50 PM57 °FSunny.5 mph72%29.89 "Hg10 mi
10:20 PM57 °FSunny.6 mph77%29.89 "Hg10 mi
9:50 PM59 °FPassing clouds.5 mph72%29.89 "HgN/A
9:20 PM59 °FPassing clouds.3 mph72%29.86 "HgN/A
8:50 PM61 °FPassing clouds.6 mph68%29.86 "HgN/A
8:20 PM61 °FPassing clouds.7 mph68%29.86 "HgN/A
7:50 PM61 °FPassing clouds.9 mph63%29.86 "HgN/A
7:20 PM63 °FScattered clouds.8 mph64%29.86 "HgN/A
6:50 PM63 °FScattered clouds.6 mph49%29.86 "HgN/A
6:20 PM61 °FScattered clouds.3 mph52%29.86 "HgN/A
5:50 PM61 °FScattered clouds.5 mph52%29.86 "HgN/A
5:20 PM61 °FScattered clouds.3 mph59%29.86 "HgN/A
4:50 PM59 °FScattered clouds.6 mph59%29.86 "HgN/A
4:20 PM59 °FScattered clouds.7 mph72%29.86 "HgN/A
3:50 PM59 °FBroken clouds.5 mph68%29.86 "HgN/A
3:20 PM57 °FBroken clouds.3 mph77%29.86 "HgN/A
2:50 PM57 °FBroken clouds.3 mph72%29.86 "HgN/A
2:20 PM55 °FScattered showers. Broken clouds.3 mph77%29.86 "HgN/A
1:50 PM55 °FDrizzle. Broken clouds.3 mph77%29.86 "HgN/A
1:20 PM55 °FLight rain. Broken clouds.2 mph82%29.86 "HgN/A
Weather by CustomWeather, © 2016

See weather overviewHow to use our weather pages